[[{"header":{"parameterUnit":"m.s-1","parameterCategory":1,"la1":30.2991,"la2":30.254,"lo1":-89.0895,"lo2":-89.0444,"dy":0.0017,"dx":0.0017,"nx":28,"ny":28,"refTime":"2025-08-15T09:00:00:Z","depth":0,"parameterNumber":2,"parameterNumberName":"U-component_of_WINDS"},"data":[0,0,0,0,0,0,0,0,0,0,0,0,0,0,0,0,0,0,0,0,0,0,0,0,0,0,0,0,0,0,0,0,0,0,0,0,0,0,0,0,0,0,0,0,0,0,0,0,0,0,0,0,0,0,0,0,0,0,4.5888,4.5891,0,4.6155,4.6158,4.6161,4.6235,4.6233,4.6232,4.623,4.6495,4.6503,4.6511,0,0,0,0,0,0,0,0,0,0,0,0,0,4.5432,4.544,4.5888,4.5891,4.5895,4.6155,4.6158,4.6162,4.6235,4.6233,4.6231,4.6229,4.6492,4.6502,4.6512,0,0,0,0,0,0,0,0,0,0,0,0,0,4.5657,4.5442,4.5887,4.5962,4.5972,4.6154,4.6159,4.6163,4.6235,4.6233,4.6231,4.6229,4.6489,4.6501,4.6513,4.6637,0,0,4.6552,4.6558,0,0,0,0,0,0,0,0,4.5644,4.5674,4.5948,4.5958,4.5969,4.616,4.6095,4.6322,4.6236,4.6135,4.623,4.6227,4.6384,4.6405,4.646,4.6649,4.6661,4.6553,4.6561,4.6566,4.657,0,0,0,0,0,0,0,4.5629,4.5663,4.5993,4.5952,4.5964,4.598,4.601,4.6138,4.6269,4.6144,4.615,4.6181,4.6389,4.6448,4.6467,4.6665,4.6553,4.6564,4.6572,4.6577,4.6968,4.6971,0,0,0,0,0,0,4.5601,4.5649,4.5985,4.6001,4.5798,4.599,4.6023,4.61,4.6268,4.6291,4.6182,4.6183,4.6427,4.6452,4.6477,4.6631,4.6566,4.6578,4.6585,4.6965,4.6969,4.6972,0,0,0,0,0,0,4.5591,4.5631,4.5974,4.5827,4.5872,4.6,4.6086,4.6107,4.6165,4.6297,4.632,4.6219,4.6427,4.6459,4.6597,4.6642,4.6584,4.6595,4.6962,4.6966,4.697,4.6942,0,0,0,0,0,0,4.5578,4.5627,4.5677,4.5828,4.588,4.6092,4.6089,4.6114,4.6188,4.6192,4.6337,4.6359,4.6427,4.6578,4.661,4.6658,4.6605,4.6959,4.6964,4.6969,4.6939,4.6945,4.6949,0,0,0,0,0,4.5561,4.5656,4.5679,4.5719,4.5946,4.6095,4.6124,4.6203,4.6192,4.6241,4.6326,4.6354,4.6633,4.6591,4.6628,4.668,4.6956,4.6962,4.6969,4.6937,4.6944,4.6949,0,0,0,0,0,0,4.5503,4.5677,4.5704,4.5852,4.5958,4.6107,4.6172,4.6208,4.6317,4.6316,4.6407,4.6439,4.657,4.664,4.6591,4.6809,4.6794,4.6808,4.6758,4.6765,4.677,4.6749,4.6616,0,0,0,0,0,4.5508,4.5618,4.5763,4.5879,4.5931,4.6043,4.611,4.6163,4.6276,4.632,4.6415,4.6521,4.6632,4.6703,4.6813,4.6951,4.6983,4.7006,4.701,4.7014,4.7023,4.71,4.7112,4.6992,4.6992,4.6992,0,0,4.5518,4.5627,4.569,4.587,4.5959,4.6067,4.608,4.6194,4.6274,4.6336,4.6473,4.6547,4.6671,4.681,4.6875,4.6871,4.7064,4.7022,4.7023,4.7032,4.7108,4.7119,4.7129,4.6997,4.6996,4.6995,0,0,4.5591,4.5686,4.5792,4.5882,4.6017,4.6091,4.6117,4.6261,4.6313,4.6453,4.6502,4.6598,4.6788,4.6874,4.6943,4.7051,4.708,4.7084,4.7108,4.7182,4.7191,4.72,4.7236,4.7248,4.7094,4.7094,4.7094,0,4.5585,4.5754,4.5841,4.5954,4.6031,4.6096,4.6203,4.6284,4.6447,4.6497,4.6492,4.6733,4.6821,4.698,4.7007,4.7061,4.7091,4.7066,4.7184,4.7193,4.7203,4.7238,4.7252,4.7094,4.7094,4.7094,4.7094,0,4.5738,4.5854,4.5923,4.6083,4.6168,4.6276,4.6378,4.6453,4.6499,4.6572,4.6713,4.6822,4.6955,4.6997,4.7041,4.7163,4.7156,4.7166,4.7153,4.7212,4.7246,4.7261,4.7093,4.7093,4.7093,4.7093,0,0,4.5779,4.5988,4.6011,4.6084,4.6239,4.6329,4.644,4.6573,4.6635,4.6746,4.6839,4.7,4.7011,4.7089,4.7144,4.721,4.7286,4.7212,4.7216,4.7219,4.7424,4.7412,4.7427,4.7308,4.7311,4.7313,4.7412,0,4.5869,4.6073,4.6156,4.632,4.6427,4.6492,4.6588,4.6692,4.6765,4.6864,4.6943,4.7055,4.7062,4.7109,4.7177,4.7262,4.7327,4.7256,4.7392,4.7396,4.7356,4.7446,4.7435,4.7522,4.7427,4.7429,4.7431,0,4.6001,4.6116,4.6291,4.6434,4.6482,4.6567,4.6696,4.6791,4.691,4.6958,4.7047,4.7099,4.7215,4.7198,4.7359,4.7308,4.737,4.742,4.7425,4.7438,4.7414,4.7458,4.7553,4.7564,4.7454,4.7452,4.745,0,4.601,4.6208,4.6339,4.6399,4.657,4.6628,4.6701,4.6819,4.6893,4.7005,4.7054,4.7177,4.7243,4.7337,4.742,4.74,4.7572,4.7562,4.7613,4.761,4.7643,4.7639,4.7745,4.7687,4.7687,4.7687,4.7687,0,4.61,4.6204,4.6345,4.6425,4.6542,4.6637,4.675,4.6827,4.6931,4.7025,4.7089,4.7175,4.7281,4.7381,4.7447,4.7569,4.7599,4.7639,4.7654,4.7632,4.7626,4.767,4.7665,4.7691,4.769,4.7689,4.7688,0,4.6128,4.6227,4.6373,4.6524,4.6564,4.6644,4.6771,4.685,4.6926,4.7044,4.7077,4.7196,4.7317,4.7411,4.7567,4.7611,4.7739,4.7758,4.7699,4.7707,4.7752,4.7745,4.7887,4.791,4.7839,4.784,4.784,0,4.6178,4.626,4.642,4.6489,4.6562,4.6672,4.6749,4.6845,4.6922,4.7065,4.7126,4.7252,4.7357,4.7547,4.7645,4.7765,4.7785,4.7827,4.7803,4.7777,4.7783,4.7775,4.7783,4.7828,4.7829,4.7829,4.7829,0,4.6254,4.63,4.641,4.6538,4.6629,4.6734,4.6839,4.6891,4.7006,4.7089,4.7215,4.7297,4.7458,4.7581,4.7712,4.7785,4.7825,4.7837,4.7854,4.783,4.7791,4.781,4.7704,4.7832,4.7832,4.7831,4.7831,4.7831,4.6293,4.6368,4.6493,4.6613,4.6704,4.6801,4.6883,4.6971,4.7078,4.7218,4.7268,4.7396,4.7513,4.7693,4.7768,4.7868,4.787,4.7896,4.7902,4.7906,4.7902,4.7779,4.7893,4.7893,4.7893,4.7893,4.7893,0,4.637,4.6454,4.6565,4.6712,4.6806,4.6841,4.6959,4.7035,4.7148,4.7256,4.7359,4.7503,4.7623,4.7733,4.7858,4.7917,4.7938,4.7946,4.7941,4.7957,4.7895,4.7866,4.7926,4.7926,4.7926,4.7926,4.7926,4.7926,4.6422,4.655,4.6611,4.6784,4.6867,4.6996,4.706,4.715,4.7236,4.7394,4.7495,4.7567,4.7675,4.7809,4.792,4.795,4.7991,4.7993,4.8026,4.7966,4.7961,4.7956,4.793,4.8002,4.8003,4.808,4.808,4.8081]},{"header":{"parameterUnit":"m.s-1","parameterCategory":1,"la1":30.2991,"la2":30.254,"lo1":-89.0895,"lo2":-89.0444,"dy":0.0017,"dx":0.0017,"nx":28,"ny":28,"refTime":"2025-08-15T09:00:00:Z","depth":0,"parameterNumber":3,"parameterNumberName":"V-component_of_WINDS"},"data":[0,0,0,0,0,0,0,0,0,0,0,0,0,0,0,0,0,0,0,0,0,0,0,0,0,0,0,0,0,0,0,0,0,0,0,0,0,0,0,0,0,0,0,0,0,0,0,0,0,0,0,0,0,0,0,0,0,0,2.0321,2.0324,0,2.0603,2.0606,2.0609,2.0713,2.0712,2.0711,2.0711,2.0999,2.1007,2.1016,0,0,0,0,0,0,0,0,0,0,0,0,0,1.9873,1.9881,2.0321,2.0324,2.0328,2.0602,2.0606,2.061,2.0714,2.0712,2.0711,2.071,2.0996,2.1006,2.1017,0,0,0,0,0,0,0,0,0,0,0,0,0,2.0102,1.9883,2.032,2.0412,2.0423,2.0602,2.0606,2.0611,2.0714,2.0712,2.0711,2.071,2.0993,2.1005,2.1018,2.1125,0,0,2.1057,2.1063,0,0,0,0,0,0,0,0,2.0089,2.0119,2.0395,2.0406,2.0419,2.0622,2.0554,2.0783,2.0714,2.0604,2.0711,2.0709,2.0875,2.0897,2.0953,2.1138,2.1151,2.1058,2.1066,2.1072,2.1075,0,0,0,0,0,0,0,2.0073,2.0107,2.0432,2.0399,2.0414,2.044,2.0471,2.0598,2.0743,2.0613,2.0621,2.0653,2.0881,2.094,2.0961,2.1155,2.1058,2.1069,2.1077,2.1082,2.1444,2.1445,0,0,0,0,0,0,2.0042,2.0093,2.0423,2.0441,2.0247,2.0449,2.0484,2.0558,2.0742,2.0769,2.0654,2.0657,2.0919,2.0945,2.0971,2.111,2.1072,2.1084,2.1091,2.1442,2.1444,2.1446,0,0,0,0,0,0,2.0032,2.007,2.0412,2.027,2.0315,2.0459,2.0541,2.0564,2.0624,2.0773,2.08,2.0688,2.0919,2.0953,2.1086,2.1121,2.1089,2.1101,2.1439,2.1442,2.1445,2.1386,0,0,0,0,0,0,2.0019,2.0066,2.0108,2.027,2.0322,2.0522,2.0543,2.0571,2.0646,2.0652,2.0812,2.0838,2.0921,2.1067,2.1099,2.1138,2.1111,2.1437,2.1441,2.1444,2.1386,2.1387,2.1387,0,0,0,0,0,2.0002,2.008,2.0109,2.0149,2.0377,2.0524,2.0554,2.0648,2.0648,2.0692,2.0788,2.0833,2.1111,2.1079,2.1117,2.116,2.1435,2.144,2.1444,2.1385,2.1386,2.1387,0,0,0,0,0,0,1.9919,2.0103,2.0138,2.027,2.038,2.0541,2.0599,2.0646,2.0759,2.0761,2.0872,2.0908,2.1032,2.111,2.107,2.1274,2.1276,2.1288,2.1219,2.1221,2.1222,2.1201,2.1122,0,0,0,0,0,1.9915,2.0019,2.0174,2.0276,2.0329,2.0454,2.0522,2.0585,2.0704,2.0751,2.0857,2.0971,2.1085,2.1157,2.127,2.1397,2.1434,2.1445,2.1446,2.1446,2.1455,2.1529,2.1536,2.146,2.146,2.146,0,0,1.991,2.0023,2.0082,2.0262,2.0355,2.046,2.0493,2.0603,2.0682,2.0768,2.0901,2.0982,2.1117,2.1247,2.131,2.1316,2.1484,2.1451,2.145,2.146,2.1534,2.1541,2.1548,2.1463,2.1463,2.1462,0,0,1.9955,2.005,2.0146,2.0239,2.0379,2.0462,2.0484,2.0639,2.0697,2.0831,2.0898,2.0994,2.1187,2.1281,2.1353,2.1433,2.1479,2.1467,2.1472,2.1542,2.1548,2.1554,2.1584,2.1593,2.1475,2.1475,2.1475,0,1.9931,2.0091,2.0189,2.0296,2.0373,2.0456,2.0554,2.0639,2.0809,2.0861,2.0865,2.1109,2.1206,2.136,2.138,2.1435,2.1465,2.1449,2.154,2.1547,2.1553,2.1583,2.1593,2.1473,2.1473,2.1473,2.1474,0,2.0055,2.0165,2.0226,2.0388,2.0473,2.0574,2.0688,2.0762,2.0817,2.0899,2.1036,2.1155,2.1293,2.1334,2.1389,2.1497,2.1496,2.1518,2.1523,2.1557,2.1586,2.1598,2.1469,2.147,2.1471,2.1472,0,0,2.0056,2.0271,2.0291,2.0367,2.0528,2.0615,2.0721,2.0857,2.0918,2.1032,2.1124,2.1286,2.1308,2.139,2.1456,2.1518,2.1575,2.1533,2.1538,2.1537,2.1701,2.1684,2.1696,2.1606,2.1608,2.161,2.169,0,2.0122,2.0314,2.0406,2.0558,2.0662,2.0742,2.0834,2.0943,2.1022,2.1122,2.121,2.1324,2.1343,2.1394,2.1458,2.1554,2.1609,2.1549,2.1692,2.1696,2.1657,2.1711,2.1694,2.1764,2.1702,2.1704,2.1706,0,2.0226,2.034,2.0502,2.0652,2.0699,2.078,2.0912,2.1007,2.1132,2.1186,2.1277,2.1342,2.1456,2.1452,2.1611,2.1568,2.1632,2.1688,2.1693,2.1711,2.1704,2.1731,2.1788,2.1799,2.1725,2.1723,2.1722,0,2.0211,2.0405,2.0528,2.059,2.0767,2.0822,2.0899,2.1023,2.1099,2.1214,2.1265,2.1391,2.1461,2.1557,2.1654,2.1642,2.1804,2.1808,2.1852,2.185,2.1884,2.188,2.1952,2.1923,2.1922,2.1922,2.1922,0,2.0276,2.0373,2.0524,2.0599,2.071,2.0814,2.0921,2.1004,2.1113,2.1206,2.1283,2.1369,2.1491,2.1592,2.1668,2.1789,2.1819,2.1866,2.1885,2.186,2.1854,2.1904,2.1902,2.1925,2.1924,2.1924,2.1923,0,2.0279,2.0384,2.0523,2.0679,2.0721,2.0796,2.093,2.1007,2.109,2.1207,2.124,2.1371,2.1494,2.16,2.1762,2.1813,2.1938,2.196,2.1895,2.1906,2.1944,2.1939,2.2052,2.2072,2.2027,2.2027,2.2028,0,2.0314,2.0391,2.0555,2.0623,2.0698,2.0806,2.0885,2.099,2.1068,2.1217,2.1275,2.1404,2.1513,2.1705,2.1815,2.1939,2.1966,2.1997,2.1985,2.1957,2.1968,2.1962,2.1971,2.1997,2.1997,2.1997,2.1997,0,2.0366,2.0415,2.0524,2.0651,2.0742,2.0848,2.0956,2.1007,2.1132,2.1216,2.1343,2.1427,2.1593,2.172,2.1856,2.1935,2.1987,2.2,2.2017,2.1992,2.1952,2.1975,2.1897,2.1997,2.1997,2.1997,2.1997,2.1997,2.0388,2.046,2.0587,2.0706,2.0798,2.0897,2.0977,2.107,2.1177,2.1321,2.1376,2.1506,2.163,2.1819,2.1898,2.2,2.2008,2.2033,2.2039,2.2044,2.204,2.1934,2.2026,2.2026,2.2026,2.2026,2.2026,0,2.0445,2.053,2.0639,2.0787,2.0881,2.0922,2.1043,2.1119,2.1232,2.1343,2.1449,2.1595,2.1718,2.1837,2.1966,2.2026,2.2053,2.2056,2.2053,2.2071,2.2025,2.1998,2.2032,2.2032,2.2032,2.2032,2.2032,2.2032,2.0486,2.0609,2.0672,2.0842,2.0928,2.1055,2.1121,2.1213,2.1303,2.1462,2.1565,2.1642,2.1756,2.1895,2.201,2.2042,2.2086,2.2083,2.2121,2.2076,2.2074,2.2072,2.2047,2.2091,2.2091,2.2158,2.2159,2.2159]}]]